CALSPHERE 1 1 00900U 64063C 26144.83461809 .00000551 00000+0 55119-3 0 9998 2 00900 90.2236 71.2200 0027076 8.7019 56.1636 13.76594090 68210 CALSPHERE 2 1 00902U 64063E 26144.80743759 .00000059 00000+0 75730-4 0 9999 2 00902 90.2373 75.2321 0016818 298.7427 120.1394 13.52898258853108 LCS 1 1 01361U 65034C 26144.64394289 .00000002 00000+0 -81097-3 0 9991 2 01361 32.1395 232.9311 0012623 37.5410 322.5967 9.89310458207551 TEMPSAT 1 1 01512U 65065E 26144.97674918 .00000013 00000+0 10139-4 0 9990 2 01512 90.0003 212.5903 0068102 314.9912 219.8259 13.33592651956959 CALSPHERE 4A 1 01520U 65065H 26144.93600839 .00000114 00000+0 20116-3 0 9993 2 01520 89.8967 122.7182 0070084 167.3933 247.7976 13.36273465959602 OPS 5712 (P/L 160) 1 02826U 67053A 26144.96331338 .00007246 00000+0 10284-2 0 9997 2 02826 69.9161 95.2027 0001337 260.9161 99.1835 14.77329458 62807 OPS 5712 (P/L 153) 1 02874U 67053H 26144.49224776 .00000020 00000+0 52999-4 0 9999 2 02874 69.9717 166.0949 0009606 237.9915 122.0258 13.96824563 3486 RIGIDSPHERE 2 (LCS 4) 1 05398U 71067E 26144.94786687 .00000461 00000+0 14449-3 0 9993 2 05398 87.6216 345.2671 0058170 311.5628 48.0591 14.37838651870549 COSMOS 2493 (SKRL-756 1) 1 39490U 13078A 26144.90298614 .00002157 00000+0 16237-3 0 9996 2 39490 82.4114 283.9641 0011953 328.3180 31.7324 15.02011997674466 COSMOS 2494 (SKRL-756 2) 1 39491U 13078B 26144.87612817 .00002522 00000+0 17700-3 0 9990 2 39491 82.4107 273.4756 0014441 284.6700 75.2925 15.04694825675300